When you browse on this site, cookies collect data to enhance your experience and personalize the content and advertising you see.
Visit our Privacy Policy to learn more. By continuing to use the site, you agree to this use of cookies and data.
  • In United Kingdom
  • List of Countries
  • For 7 days
  • Water Temperature
  • Satellite Maps
  • Weather Map
  • Weather Widgets
  • user-avatar
    Login

    Hourly Weather Girvan

    Today, 26 June, Wednesday

    Time Temperature Precipitation Wind Pressure Humidity
    00:00 +28°C° 0 mm 3 mps 718 mmHg 30%
    01:00 +27°C° 0 mm 2 mps 718 mmHg 32%
    02:00 +27°C° 0 mm 2 mps 717 mmHg 33%
    03:00 +26°C° 0 mm 2 mps 717 mmHg 33%
    04:00 +26°C° 0 mm 2 mps 717 mmHg 34%
    05:00 +25°C° 0 mm 2 mps 717 mmHg 34%
    06:00 +28°C° 0 mm 2 mps 717 mmHg 30%
    07:00 +30°C° 0 mm 2 mps 717 mmHg 26%
    08:00 +34°C° 0 mm 2 mps 718 mmHg 22%
    09:00 +35°C° 0 mm 2 mps 717 mmHg 19%
    10:00 +37°C° 0 mm 2 mps 717 mmHg 17%
    11:00 +38°C° 0 mm 2 mps 717 mmHg 15%
    12:00 +39°C° 0 mm 2 mps 717 mmHg 14%
    13:00 +40°C° 0 mm 2 mps 717 mmHg 13%
    14:00 +41°C° 0 mm 2 mps 717 mmHg 12%
    15:00 +41°C° 0 mm 2 mps 716 mmHg 12%
    16:00 +41°C° 0 mm 2 mps 716 mmHg 12%
    17:00 +41°C° 0 mm 2 mps 716 mmHg 13%
    18:00 +39°C° 0 mm 2 mps 716 mmHg 16%
    19:00 +36°C° 0 mm 3 mps 716 mmHg 19%
    20:00 +34°C° 0 mm 3 mps 716 mmHg 22%
    21:00 +33°C° 0.1 mm 3 mps 716 mmHg 26%
    22:00 +32°C° 0.1 mm 4 mps 716 mmHg 29%
    23:00 +29°C° 0.1 mm 4 mps 715 mmHg 33%

    Tomorrow, 27 June, Thursday

    Time Temperature Precipitation Wind Pressure Humidity
    00:00 +28°C° 0 mm 3 mps 715 mmHg 34%
    01:00 +28°C° 0 mm 2 mps 715 mmHg 36%
    02:00 +27°C° 0 mm 1 mps 714 mmHg 37%
    03:00 +27°C° 0.1 mm 1 mps 714 mmHg 38%
    04:00 +26°C° 0.1 mm 1 mps 714 mmHg 38%
    05:00 +26°C° 0.1 mm 2 mps 714 mmHg 38%
    06:00 +28°C° 0 mm 2 mps 714 mmHg 34%
    07:00 +30°C° 0 mm 1 mps 715 mmHg 30%
    08:00 +32°C° 0 mm 1 mps 715 mmHg 26%
    09:00 +33°C° 0 mm 1 mps 715 mmHg 24%
    10:00 +36°C° 0 mm 2 mps 715 mmHg 21%
    11:00 +38°C° 0 mm 2 mps 715 mmHg 19%
    12:00 +39°C° 0 mm 2 mps 715 mmHg 17%
    13:00 +40°C° 0 mm 2 mps 715 mmHg 14%
    14:00 +42°C° 0 mm 3 mps 715 mmHg 12%
    15:00 +42°C° 0 mm 3 mps 715 mmHg 11%
    16:00 +42°C° 0 mm 4 mps 715 mmHg 11%
    17:00 +42°C° 0 mm 4 mps 715 mmHg 10%
    18:00 +39°C° 0 mm 5 mps 715 mmHg 16%
    19:00 +35°C° 0 mm 5 mps 715 mmHg 21%
    20:00 +32°C° 0 mm 6 mps 715 mmHg 27%
    21:00 +30°C° 0 mm 5 mps 715 mmHg 29%
    22:00 +29°C° 0 mm 5 mps 715 mmHg 32%
    23:00 +28°C° 0 mm 4 mps 715 mmHg 34%

    Day after tomorrow, 28 June, Friday

    Time Temperature Precipitation Wind Pressure Humidity
    00:00 +28°C° 0 mm 4 mps 714 mmHg 34%
    01:00 +27°C° 0 mm 3 mps 714 mmHg 34%
    02:00 +27°C° 0 mm 3 mps 714 mmHg 34%
    03:00 +26°C° 0 mm 2 mps 714 mmHg 34%
    04:00 +26°C° 0 mm 2 mps 714 mmHg 34%
    05:00 +26°C° 0 mm 2 mps 714 mmHg 34%
    06:00 +28°C° 0 mm 2 mps 714 mmHg 31%
    07:00 +30°C° 0 mm 2 mps 714 mmHg 27%
    08:00 +32°C° 0 mm 2 mps 714 mmHg 24%
    09:00 +35°C° 0 mm 2 mps 714 mmHg 21%
    10:00 +36°C° 0 mm 2 mps 714 mmHg 19%
    11:00 +38°C° 0 mm 2 mps 714 mmHg 17%
    12:00 +39°C° 0 mm 2 mps 714 mmHg 15%
    13:00 +41°C° 0 mm 1 mps 713 mmHg 13%
    14:00 +42°C° 0 mm 1 mps 713 mmHg 11%
    15:00 +41°C° 0 mm 1 mps 713 mmHg 10%
    16:00 +41°C° 0 mm 2 mps 713 mmHg 10%
    17:00 +41°C° 0 mm 2 mps 713 mmHg 10%
    18:00 +39°C° 0 mm 2 mps 713 mmHg 13%
    19:00 +36°C° 0 mm 3 mps 713 mmHg 17%
    20:00 +34°C° 0 mm 3 mps 713 mmHg 20%
    21:00 +33°C° 0 mm 3 mps 714 mmHg 22%
    22:00 +31°C° 0 mm 3 mps 714 mmHg 25%
    23:00 +30°C° 0 mm 3 mps 714 mmHg 27%

    29 June, Saturday

    Time Temperature Precipitation Wind Pressure Humidity
    00:00 +29°C° 0 mm 2 mps 714 mmHg 28%
    01:00 +29°C° 0 mm 2 mps 713 mmHg 30%
    02:00 +28°C° 0 mm 2 mps 713 mmHg 31%
    03:00 +28°C° 0 mm 2 mps 713 mmHg 31%
    04:00 +28°C° 0 mm 2 mps 713 mmHg 31%
    05:00 +27°C° 0 mm 3 mps 713 mmHg 31%
    06:00 +29°C° 0.1 mm 3 mps 713 mmHg 29%
    07:00 +30°C° 0.1 mm 3 mps 714 mmHg 26%
    08:00 +33°C° 0.1 mm 3 mps 714 mmHg 24%
    09:00 +34°C° 0 mm 3 mps 714 mmHg 22%
    10:00 +36°C° 0 mm 3 mps 714 mmHg 20%
    11:00 +38°C° 0 mm 2 mps 714 mmHg 17%
    12:00 +39°C° 0 mm 2 mps 714 mmHg 16%
    13:00 +40°C° 0 mm 1 mps 713 mmHg 14%
    14:00 +42°C° 0 mm 1 mps 713 mmHg 12%
    15:00 +42°C° 0 mm 1 mps 714 mmHg 12%
    16:00 +41°C° 0 mm 2 mps 714 mmHg 12%
    17:00 +42°C° 0 mm 3 mps 714 mmHg 12%
    18:00 +40°C° 0 mm 4 mps 714 mmHg 17%
    19:00 +36°C° 0 mm 6 mps 714 mmHg 22%
    20:00 +33°C° 0 mm 7 mps 715 mmHg 27%
    21:00 +32°C° 0 mm 6 mps 714 mmHg 28%
    22:00 +30°C° 0 mm 4 mps 714 mmHg 30%
    23:00 +29°C° 0 mm 3 mps 714 mmHg 31%

    30 June, Sunday

    Time Temperature Precipitation Wind Pressure Humidity
    00:00 +28°C° 0 mm 2 mps 714 mmHg 32%
    01:00 +28°C° 0 mm 2 mps 713 mmHg 33%
    02:00 +27°C° 0 mm 2 mps 713 mmHg 34%
    03:00 +27°C° 0 mm 2 mps 713 mmHg 34%
    04:00 +27°C° 0 mm 2 mps 713 mmHg 35%
    05:00 +26°C° 0 mm 2 mps 713 mmHg 36%
    06:00 +29°C° 0 mm 2 mps 713 mmHg 32%
    07:00 +31°C° 0 mm 2 mps 714 mmHg 27%
    08:00 +35°C° 0 mm 2 mps 714 mmHg 23%
    09:00 +36°C° 0 mm 2 mps 714 mmHg 21%
    10:00 +38°C° 0 mm 2 mps 714 mmHg 19%
    11:00 +40°C° 0 mm 2 mps 714 mmHg 17%
    12:00 +41°C° 0 mm 2 mps 714 mmHg 15%
    13:00 +42°C° 0 mm 2 mps 714 mmHg 13%
    14:00 +43°C° 0 mm 2 mps 713 mmHg 11%
    15:00 +43°C° 0 mm 3 mps 714 mmHg 12%
    16:00 +43°C° 0 mm 4 mps 714 mmHg 13%
    17:00 +43°C° 0 mm 5 mps 714 mmHg 13%
    18:00 +40°C° 0 mm 5 mps 714 mmHg 17%
    19:00 +36°C° 0 mm 4 mps 714 mmHg 21%
    20:00 +34°C° 0 mm 4 mps 714 mmHg 24%
    21:00 +33°C° 0 mm 4 mps 714 mmHg 26%
    22:00 +32°C° 0 mm 4 mps 714 mmHg 28%
    23:00 +30°C° 0 mm 4 mps 714 mmHg 29%

    1 July, Monday

    Time Temperature Precipitation Wind Pressure Humidity
    00:00 +29°C° 0 mm 3 mps 714 mmHg 30%
    01:00 +29°C° 0 mm 3 mps 713 mmHg 30%
    02:00 +28°C° 0 mm 3 mps 713 mmHg 31%
    03:00 +28°C° 0 mm 2 mps 713 mmHg 31%
    04:00 +28°C° 0 mm 2 mps 713 mmHg 31%
    05:00 +27°C° 0 mm 2 mps 713 mmHg 31%
    06:00 +30°C° 0 mm 2 mps 714 mmHg 28%
    07:00 +32°C° 0 mm 2 mps 714 mmHg 24%
    08:00 +35°C° 0 mm 2 mps 714 mmHg 21%
    09:00 +37°C° 0 mm 2 mps 714 mmHg 19%
    10:00 +40°C° 0 mm 1 mps 714 mmHg 17%
    11:00 +42°C° 0 mm 1 mps 714 mmHg 15%
    12:00 +42°C° 0 mm 2 mps 714 mmHg 13%
    13:00 +43°C° 0 mm 2 mps 714 mmHg 12%
    14:00 +45°C° 0 mm 3 mps 714 mmHg 11%
    15:00 +45°C° 0 mm 3 mps 714 mmHg 11%
    16:00 +45°C° 0 mm 3 mps 714 mmHg 11%
    17:00 +45°C° 0 mm 3 mps 714 mmHg 11%
    18:00 +43°C° 0 mm 3 mps 714 mmHg 13%
    19:00 +39°C° 0 mm 2 mps 714 mmHg 16%
    20:00 +37°C° 0 mm 2 mps 714 mmHg 19%
    21:00 +35°C° 0 mm 2 mps 714 mmHg 21%
    22:00 +34°C° 0 mm 2 mps 715 mmHg 24%
    23:00 +32°C° 0 mm 2 mps 715 mmHg 26%
    Show more